#timestamp,LO_Frequency,Hit,StdDev 
1664197215.7,286047002.1,N
1664197235.6,286046999.8,N
1664197255.4,286047000.7,N
1664197275.2,286046998.3,N
1664197295.1,286047000.3,N
1664197296.0,286047000.3,N
1664197315.8,286047000.2,N
1664197335.6,286047000.2,N
1664197355.5,286047002.6,N
1664197375.3,286047000.2,N
1664197395.2,286047000.2,N
1664197415.9,286047000.2,N
1664197435.7,286047002.3,N
1664197455.6,286047001.6,N
1664197475.4,286047002.8,N
1664197495.2,286047001.5,N
1664197515.1,286047001.3,N
1664197516.0,286047001.3,N
1664197535.8,286047000.6,N
1664197555.7,286047002.8,N
1664197575.5,286047002.8,N
1664197595.3,286047001.7,N
1664197615.2,286047001.9,N
1664197635.0,286047001.4,N
1664197635.9,286047001.4,N
1664197655.7,286047001.4,N
1664197675.6,286047001.7,N
1664197695.4,286047001.4,N
1664197715.3,286047001.6,N
1664197735.1,286047001.5,N
1664197736.0,286047001.5,N
1664197755.8,286047000.6,N
1664197775.7,286047002.8,N
1664197795.5,286047002.1,N
1664197815.4,286047002.7,Y
1664197835.2,286047000.4,P
1664197855.0,286047000.9,N
1664197855.9,286047000.9,N
1664197875.8,286047000.4,N
1664197895.6,286047000.5,N
1664197915.4,286047000.2,N
1664197935.3,286047000.6,N
1664197955.1,286046999.6,N
1664197975.9,286046998.5,Y
1664197995.7,286046998.6,P
1664198015.5,286047001.2,N
1664198035.4,286046998.1,N
1664198055.2,286047001.2,N
1664198075.0,286046998.1,N
1664198075.9,286046998.1,N
1664198095.8,286046998.1,N
1664198115.6,286046998.8,N
1664198135.5,286046998.7,N
1664198155.3,286046998.8,N
1664198175.1,286046996.8,N
1664198195.9,286046996.9,N
1664198215.7,286046999.6,N
1664198235.5,286046999.2,N
1664198255.4,286047001.0,N
1664198275.2,286047000.9,N
1664198295.1,286047001.0,N
1664198296.0,286047001.0,N
1664198315.8,286047000.6,N
1664198335.6,286047000.9,N
1664198355.5,286047000.7,N
1664198375.3,286047000.9,N
1664198395.1,286047002.5,N
1664198415.9,286047000.6,N
1664198435.7,286047000.7,N
1664198455.6,286046998.8,N
1664198475.4,286047000.4,N
1664198495.2,286047000.0,N
1664198515.1,286046998.8,N
1664198516.0,286046998.8,N
1664198535.8,286046998.8,N
1664198555.6,286046998.4,N
1664198575.5,286047011.9,Y
1664198595.3,286047001.6,P
1664198615.2,286047002.1,N
1664198635.9,286047002.3,N
1664198655.7,286047002.7,N
1664198675.6,286047002.5,N
1664198695.4,286047002.5,N
1664198715.3,286047002.1,N
1664198735.1,286047002.6,N
1664198736.0,286047002.6,N
1664198755.8,286047002.4,N
1664198775.7,286047001.4,N
1664198795.5,286047000.3,N
1664198815.3,286047000.6,N
1664198835.2,286047000.5,N
1664198855.0,286047000.3,N
1664198855.9,286047000.3,N
1664198875.8,286046999.8,N
1664198895.6,286047002.2,N
1664198915.4,286047000.0,N
1664198935.3,286046999.9,N
1664198955.1,286046999.9,N
1664198975.9,286047000.3,N
1664198995.7,286046999.8,N
1664199015.6,286047000.0,N
1664199035.4,286047002.8,N
1664199055.2,286047002.4,N
1664199075.1,286046999.8,N
1664199076.0,286046999.8,N
1664199095.8,286046998.1,N
1664199115.7,286046997.2,N
1664199135.5,286046998.8,N
1664199155.3,286047000.7,N
1664199175.2,286047000.0,N
1664199195.0,286047002.5,N
1664199195.9,286047002.5,N
1664199215.8,286047002.8,N
1664199235.6,286047002.7,N
1664199255.4,286047001.8,N
1664199275.3,286047001.4,N
1664199295.1,286046999.9,N
1664199315.9,286047000.3,N
1664199335.7,286047000.2,N
1664199355.5,286047002.8,N
1664199375.4,286047002.7,N
1664199395.2,286047001.6,N
1664199415.1,286047002.2,N
1664199416.0,286047002.2,N
1664199435.8,286046999.9,N
1664199455.6,286046999.3,N
1664199475.5,286046999.2,N
1664199495.3,286046998.5,N
1664199515.1,286047000.6,N
1664199535.9,286046999.8,N
1664199555.7,286046999.8,N
1664199575.6,286047000.7,N
1664199595.4,286046999.4,N
1664199615.2,286047001.0,N
1664199635.1,286046999.9,N
1664199636.0,286046999.9,N
1664199655.8,286047000.1,N
1664199675.7,286047000.5,N
1664199695.5,286047002.6,N
1664199715.3,286047004.4,Y
1664199735.2,286047001.6,P
1664199755.0,286047002.8,P
1664199755.9,286047002.8,P
1664199775.8,286047000.5,N
1664199795.6,286046998.3,N
1664199815.4,286047000.0,N
1664199835.3,286047001.5,N
1664199855.1,286047002.1,N
1664199875.8,286047002.8,N
1664199895.7,286047000.1,N
1664199915.5,286046999.9,N
1664199935.3,286047000.0,N
1664199955.2,286046998.2,N
1664199975.0,286046998.2,N
1664199975.9,286046998.2,N
1664199995.8,286047000.8,N
1664200015.6,286047000.9,N
1664200035.4,286047001.1,N
1664200055.3,286047000.7,N
1664200075.1,286047000.9,N
1664200095.9,286047000.8,N
1664200115.7,286046999.9,N
1664200135.5,286047002.3,N
1664200155.4,286047002.4,N
1664200175.2,286047002.1,N
1664200195.0,286046999.8,N
1664200195.9,286046999.8,N
1664200215.8,286047001.5,N
1664200235.6,286047002.8,N
1664200255.5,286047001.2,N
1664200275.3,286047002.7,N
1664200295.1,286047003.7,N
1664200315.9,286047010.7,Y
1664200335.7,286047010.0,P
1664200355.5,286047010.3,N
1664200375.4,286047009.1,N
1664200395.2,286047007.0,N
1664200415.1,286047005.1,N
1664200416.0,286047005.1,N
1664200435.8,286047004.8,N
1664200455.6,286047004.9,N
1664200475.5,286047004.8,N
1664200495.3,286047005.9,N
1664200515.1,286047004.1,N
1664200535.9,286047003.7,N
1664200555.7,286047004.0,N
1664200575.6,286047001.3,N
1664200595.4,286047002.1,N
1664200615.2,286046999.8,N
1664200635.1,286047002.3,N
1664200636.0,286047002.3,N
1664200655.8,286047002.0,N
1664200675.7,286046999.9,N
1664200695.5,286046999.7,N
1664200715.3,286047000.8,N
1664200735.2,286046999.6,N
1664200755.0,286046999.1,N
1664200755.9,286046999.1,N
1664200775.7,286047001.2,N
1664200795.6,286046998.8,N
